Location: Invercargill
(46.4000°S, 168.3500°E)
Time: 15:29:26
(UTC+12:00)

Envisat - Visible Passes

Search period start: 16 June 2019 00:00
Search period end: 26 June 2019 00:00
Orbit: 764 x 766 km, 98.1° (Epoch: 15 June)

Date Brightness Start Highest point End Pass type
(mag) Time Alt. Az. Time Alt. Az. Time Alt. Az.
16 Jun 3.8 06:36:04 10° NE 06:41:02 52° ESE 06:46:03 10° S visible
16 Jun 5.5 20:31:00 12° NNW 20:31:00 12° NNW 20:31:19 10° NNW visible
17 Jun 5.0 06:00:18 10° ENE 06:04:32 27° ESE 06:08:48 10° S visible
17 Jun 3.4 07:38:25 10° N 07:43:19 45° W 07:48:17 10° SSW visible
17 Jun 5.2 19:53:46 13° N 19:53:46 13° N 19:54:23 10° N visible
18 Jun 5.7 05:25:35 10° E 05:28:14 14° ESE 05:30:53 10° SSE visible
18 Jun 3.1 07:01:21 10° NNE 07:06:29 87° ESE 07:11:40 10° SSW visible
18 Jun 5.3 19:16:32 10° NNE 19:16:32 10° NNE 19:16:35 10° NNE visible
19 Jun 4.2 06:25:03 10° NE 06:29:51 43° ESE 06:34:43 10° S visible
19 Jun 5.3 20:19:30 14° NNW 20:19:30 14° NNW 20:20:07 10° NNW visible
20 Jun 5.2 05:49:31 10° ENE 05:53:25 22° ESE 05:57:20 10° SSE visible
20 Jun 3.1 07:27:00 10° N 07:32:02 57° W 07:37:08 10° SSW visible
20 Jun 5.1 19:42:15 14° NNE 19:42:15 14° NNE 19:42:57 10° NNE visible
21 Jun 5.8 05:15:25 10° ESE 05:17:10 12° SE 05:18:55 10° SE visible
21 Jun 3.3 06:50:10 10° NNE 06:55:16 71° ESE 07:00:25 10° S visible
21 Jun 5.6 20:45:13 11° NNW 20:45:13 11° NNW 20:45:27 10° NNW visible
22 Jun 4.5 06:14:05 10° NE 06:18:41 35° ESE 06:23:20 10° S visible
22 Jun 3.8 07:53:05 10° NNW 07:57:41 34° W 08:02:22 10° SSW visible
22 Jun 5.2 20:07:58 15° N 20:07:58 15° N 20:08:50 10° N visible
23 Jun 5.5 05:38:50 10° ENE 05:42:18 19° ESE 05:45:47 10° SSE visible
23 Jun 3.0 07:15:40 10° N 07:20:46 71° WNW 07:25:57 10° SSW visible
23 Jun 5.1 19:30:43 14° NNE 19:30:43 14° NNE 19:31:25 10° NNE visible
24 Jun 3.6 06:39:03 10° NNE 06:44:04 57° ESE 06:49:07 10° S visible
24 Jun 5.4 20:33:40 14° NNW 20:33:40 14° NNW 20:34:20 10° NNW visible
25 Jun 4.8 06:03:11 10° ENE 06:07:32 29° ESE 06:11:56 10° S visible
25 Jun 3.5 07:41:33 10° NNW 07:46:23 42° W 07:51:17 10° SSW visible
25 Jun 5.0 19:56:25 16° N 19:56:25 16° N 19:57:29 10° N visible
